| time (UTC) | temp F | wind direction | speed MPH | gust MPH | rain 1hr in | rain 24hr in | rain mn in | humidity % | barometer mb |
| 20260901000555 | 98 | 85 | 3.0 | 7.0 | 0.00 | 0.00 | 0.00 | 35 | 1011.5 |
| 20260901000052 | 98 | 125 | 5.0 | 11.0 | 0.00 | 0.00 | 0.00 | 35 | 1011.4 |
| 20260831235545 | 98 | 158 | 3.0 | 8.0 | 0.00 | 0.00 | 0.00 | 34 | 1011.5 |
| 20260831235041 | 98 | 147 | 5.0 | 13.0 | 0.00 | 0.00 | 0.00 | 34 | 1011.5 |
| 20260831234540 | 99 | 118 | 3.0 | 11.0 | 0.00 | 0.00 | 0.00 | 34 | 1011.9 |
| 20260831234037 | 99 | 172 | 5.0 | 11.0 | 0.00 | 0.00 | 0.00 | 34 | 1011.9 |
| 20260831233531 | 99 | 158 | 8.0 | 11.0 | 0.00 | 0.00 | 0.00 | 34 | 1011.8 |
| 20260831233027 | 99 | 182 | 3.0 | 6.0 | 0.00 | 0.00 | 0.00 | 33 | 1011.7 |
| 20260831232522 | 98 | 145 | 3.0 | 10.0 | 0.00 | 0.00 | 0.00 | 34 | 1011.5 |
| 20260831232018 | 100 | 180 | 3.0 | 11.0 | 0.00 | 0.00 | 0.00 | 33 | 1011.7 |
| 20260831231515 | 100 | 211 | 2.0 | 14.0 | 0.00 | 0.00 | 0.00 | 33 | 1011.8 |
| 20260831231010 | 100 | 160 | 8.0 | 11.0 | 0.00 | 0.00 | 0.00 | 32 | 1011.7 |
| 20260831230505 | 100 | 178 | 7.0 | 12.0 | 0.00 | 0.00 | 0.00 | 31 | 1011.5 |
| 20260831230005 | 100 | 204 | 2.0 | 9.0 | 0.00 | 0.00 | 0.00 | 32 | 1011.4 |
| 20260831225501 | 100 | 162 | 4.0 | 8.0 | 0.00 | 0.00 | 0.00 | 33 | 1011.8 |
| 20260831225000 | 100 | 230 | 3.0 | 9.0 | 0.00 | 0.00 | 0.00 | 33 | 1011.5 |
| 20260831224455 | 99 | 180 | 3.0 | 7.0 | 0.00 | 0.00 | 0.00 | 34 | 1011.4 |
| 20260831223949 | 98 | 172 | 5.0 | 8.0 | 0.00 | 0.00 | 0.00 | 34 | 1011.2 |
| 20260831223445 | 98 | 173 | 3.0 | 9.0 | 0.00 | 0.00 | 0.00 | 34 | 1011.5 |
| 20260831222942 | 98 | 156 | 3.0 | 10.0 | 0.00 | 0.00 | 0.00 | 34 | 1011.5 |
| 20260831222437 | 99 | 172 | 6.0 | 8.0 | 0.00 | 0.00 | 0.00 | 33 | 1011.3 |
| 20260831221932 | 100 | 150 | 7.0 | 11.0 | 0.00 | 0.00 | 0.00 | 32 | 1011.5 |
| 20260831221428 | 101 | 174 | 3.0 | 11.0 | 0.00 | 0.00 | 0.00 | 32 | 1011.7 |
| 20260831220923 | 101 | 153 | 4.0 | 9.0 | 0.00 | 0.00 | 0.00 | 31 | 1011.5 |
| 20260831220419 | 102 | 182 | 4.0 | 11.0 | 0.00 | 0.00 | 0.00 | 31 | 1011.5 |
| 20260831215914 | 101 | 152 | 5.0 | 8.0 | 0.00 | 0.00 | 0.00 | 31 | 1011.8 |
| 20260831215409 | 101 | 104 | 5.0 | 16.0 | 0.00 | 0.00 | 0.00 | 31 | 1011.4 |
| 20260831214905 | 102 | 152 | 1.0 | 16.0 | 0.00 | 0.00 | 0.00 | 31 | 1011.8 |
| 20260831214403 | 102 | 122 | 5.0 | 12.0 | 0.00 | 0.00 | 0.00 | 31 | 1011.8 |
| 20260831213858 | 102 | 168 | 4.0 | 5.0 | 0.00 | 0.00 | 0.00 | 30 | 1011.9 |
| 20260831213355 | 101 | 172 | 7.0 | 13.0 | 0.00 | 0.00 | 0.00 | 31 | 1012.0 |
| 20260831212849 | 102 | 207 | 7.0 | 9.0 | 0.00 | 0.00 | 0.00 | 30 | 1011.9 |
| 20260831212346 | 102 | 221 | 3.0 | 8.0 | 0.00 | 0.00 | 0.00 | 30 | 1012.0 |
| 20260831211845 | 100 | 163 | 4.0 | 9.0 | 0.00 | 0.00 | 0.00 | 32 | 1012.1 |
| 20260831211344 | 101 | 141 | 4.0 | 15.0 | 0.00 | 0.00 | 0.00 | 32 | 1012.1 |
| 20260831210845 | 101 | 205 | 4.0 | 13.0 | 0.00 | 0.00 | 0.00 | 32 | 1012.3 |
| 20260831210341 | 100 | 162 | 6.0 | 13.0 | 0.00 | 0.00 | 0.00 | 32 | 1012.4 |
| 20260831205836 | 101 | 165 | 14.0 | 19.0 | 0.00 | 0.00 | 0.00 | 32 | 1012.4 |
| 20260831205331 | 101 | 152 | 6.0 | 18.0 | 0.00 | 0.00 | 0.00 | 31 | 1012.5 |
| 20260831204826 | 101 | 205 | 6.0 | 11.0 | 0.00 | 0.00 | 0.00 | 31 | 1012.5 |
| 20260831204325 | 101 | 226 | 4.0 | 8.0 | 0.00 | 0.00 | 0.00 | 30 | 1012.6 |
| 20260831203824 | 100 | 175 | 8.0 | 15.0 | 0.00 | 0.00 | 0.00 | 31 | 1012.6 |
| 20260831203319 | 101 | 184 | 4.0 | 16.0 | 0.00 | 0.00 | 0.00 | 30 | 1012.6 |
| 20260831202817 | 99 | 141 | 3.0 | 9.0 | 0.00 | 0.00 | 0.00 | 33 | 1012.9 |
| 20260831202312 | 100 | 257 | 0.0 | 9.0 | 0.00 | 0.00 | 0.00 | 32 | 1012.7 |
| 20260831201807 | 99 | 129 | 7.0 | 11.0 | 0.00 | 0.00 | 0.00 | 33 | 1012.9 |
| 20260831201305 | 100 | 167 | 5.0 | 9.0 | 0.00 | 0.00 | 0.00 | 32 | 1013.0 |
| 20260831200801 | 99 | 104 | 3.0 | 25.0 | 0.00 | 0.00 | 0.00 | 35 | 1013.2 |
| 20260831200250 | 100 | 180 | 5.0 | 10.0 | 0.00 | 0.00 | 0.00 | 33 | 1013.1 |
| 20260831195746 | 101 | 157 | 7.0 | 16.0 | 0.00 | 0.00 | 0.00 | 33 | 1013.0 |
| 20260831195241 | 100 | 150 | 8.0 | 17.0 | 0.00 | 0.00 | 0.00 | 33 | 1013.0 |
| 20260831194736 | 99 | 167 | 10.0 | 13.0 | 0.00 | 0.00 | 0.00 | 35 | 1013.0 |
| 20260831194232 | 98 | 183 | 4.0 | 13.0 | 0.00 | 0.00 | 0.00 | 35 | 1013.2 |
| 20260831193725 | 99 | 184 | 5.0 | 11.0 | 0.00 | 0.00 | 0.00 | 36 | 1013.3 |
| 20260831193221 | 98 | 100 | 5.0 | 9.0 | 0.00 | 0.00 | 0.00 | 37 | 1013.3 |
| 20260831192716 | 99 | 172 | 4.0 | 10.0 | 0.00 | 0.00 | 0.00 | 38 | 1013.6 |
| 20260831192211 | 97 | 161 | 13.0 | 17.0 | 0.00 | 0.00 | 0.00 | 40 | 1013.5 |
| 20260831191707 | 98 | 133 | 5.0 | 15.0 | 0.00 | 0.00 | 0.00 | 39 | 1013.5 |
| 20260831191203 | 98 | 184 | 5.0 | 11.0 | 0.00 | 0.00 | 0.00 | 38 | 1013.5 |
| 20260831190658 | 98 | 181 | 5.0 | 13.0 | 0.00 | 0.00 | 0.00 | 39 | 1013.6 |
| 20260831190157 | 99 | 172 | 3.0 | 11.0 | 0.00 | 0.00 | 0.00 | 38 | 1013.6 |
| 20260831185652 | 99 | 178 | 4.0 | 17.0 | 0.00 | 0.00 | 0.00 | 38 | 1013.7 |
| 20260831185147 | 99 | 158 | 7.0 | 9.0 | 0.00 | 0.00 | 0.00 | 36 | 1013.7 |
| 20260831184641 | 99 | 143 | 5.0 | 15.0 | 0.00 | 0.00 | 0.00 | 36 | 1013.8 |
| 20260831184137 | 99 | 221 | 4.0 | 12.0 | 0.00 | 0.00 | 0.00 | 37 | 1013.8 |
| 20260831183631 | 100 | 228 | 6.0 | 14.0 | 0.00 | 0.00 | 0.00 | 36 | 1014.1 |
| 20260831183131 | 99 | 302 | 0.0 | 11.0 | 0.00 | 0.00 | 0.00 | 38 | 1014.1 |
| 20260831182630 | 98 | 165 | 6.0 | 15.0 | 0.00 | 0.00 | 0.00 | 38 | 1014.2 |
| 20260831182126 | 98 | 170 | 5.0 | 13.0 | 0.00 | 0.00 | 0.00 | 39 | 1014.2 |
| 20260831181625 | 97 | 157 | 7.0 | 15.0 | 0.00 | 0.00 | 0.00 | 39 | 1014.3 |
| 20260831181120 | 98 | 172 | 7.0 | 13.0 | 0.00 | 0.00 | 0.00 | 38 | 1014.3 |
| 20260831180615 | 98 | 180 | 5.0 | 9.0 | 0.00 | 0.00 | 0.00 | 39 | 1014.3 |
| 20260831180110 | 98 | 253 | 4.0 | 11.0 | 0.00 | 0.00 | 0.00 | 38 | 1014.4 |
| 20260831175605 | 98 | 156 | 5.0 | 10.0 | 0.00 | 0.00 | 0.00 | 39 | 1014.6 |
| 20260831175102 | 98 | 174 | 9.0 | 11.0 | 0.00 | 0.00 | 0.00 | 38 | 1014.9 |
| 20260831174556 | 97 | 149 | 3.0 | 7.0 | 0.00 | 0.00 | 0.00 | 39 | 1014.8 |
| 20260831174056 | 98 | 118 | 4.0 | 16.0 | 0.00 | 0.00 | 0.00 | 39 | 1014.9 |
| 20260831173554 | 96 | 202 | 5.0 | 14.0 | 0.00 | 0.00 | 0.00 | 41 | 1014.9 |
| 20260831173051 | 97 | 136 | 5.0 | 12.0 | 0.00 | 0.00 | 0.00 | 39 | 1015.1 |
| 20260831172546 | 97 | 166 | 5.0 | 17.0 | 0.00 | 0.00 | 0.00 | 41 | 1015.1 |
| 20260831172046 | 96 | 170 | 2.0 | 10.0 | 0.00 | 0.00 | 0.00 | 41 | 1015.2 |
| 20260831171541 | 96 | 165 | 6.0 | 13.0 | 0.00 | 0.00 | 0.00 | 42 | 1015.2 |
| 20260831171039 | 96 | 148 | 5.0 | 11.0 | 0.00 | 0.00 | 0.00 | 42 | 1015.2 |
| 20260831170534 | 95 | 241 | 6.0 | 13.0 | 0.00 | 0.00 | 0.00 | 42 | 1015.2 |
| 20260831170032 | 96 | 128 | 3.0 | 9.0 | 0.00 | 0.00 | 0.00 | 41 | 1015.1 |
| 20260831165531 | 95 | 169 | 9.0 | 18.0 | 0.00 | 0.00 | 0.00 | 42 | 1015.2 |
| 20260831165028 | 95 | 188 | 8.0 | 14.0 | 0.00 | 0.00 | 0.00 | 41 | 1015.2 |
| 20260831164524 | 95 | 204 | 4.0 | 14.0 | 0.00 | 0.00 | 0.00 | 42 | 1015.3 |
| 20260831164020 | 95 | 180 | 5.0 | 13.0 | 0.00 | 0.00 | 0.00 | 41 | 1015.2 |
| 20260831163514 | 94 | 213 | 5.0 | 11.0 | 0.00 | 0.00 | 0.00 | 42 | 1015.3 |
| 20260831163009 | 94 | 222 | 7.0 | 13.0 | 0.00 | 0.00 | 0.00 | 43 | 1015.4 |
| 20260831162503 | 95 | 193 | 7.0 | 10.0 | 0.00 | 0.00 | 0.00 | 42 | 1015.4 |
| 20260831162001 | 94 | 163 | 5.0 | 11.0 | 0.00 | 0.00 | 0.00 | 43 | 1015.5 |
| 20260831161458 | 94 | 153 | 4.0 | 11.0 | 0.00 | 0.00 | 0.00 | 45 | 1015.3 |
| 20260831160953 | 93 | 250 | 6.0 | 8.0 | 0.00 | 0.00 | 0.00 | 46 | 1015.1 |
| 20260831160453 | 93 | 220 | 3.0 | 10.0 | 0.00 | 0.00 | 0.00 | 47 | 1015.1 |
| 20260831155948 | 92 | 211 | 4.0 | 10.0 | 0.00 | 0.00 | 0.00 | 46 | 1015.4 |
| 20260831155443 | 93 | 195 | 0.0 | 5.0 | 0.00 | 0.00 | 0.00 | 50 | 1015.4 |
| 20260831154938 | 92 | 260 | 4.0 | 7.0 | 0.00 | 0.00 | 0.00 | 49 | 1015.2 |
| 20260831154435 | 91 | 235 | 4.0 | 8.0 | 0.00 | 0.00 | 0.00 | 51 | 1015.3 |
| 20260831153933 | 92 | 199 | 7.0 | 10.0 | 0.00 | 0.00 | 0.00 | 52 | 1015.4 |
| 20260831153429 | 91 | 238 | 5.0 | 12.0 | 0.00 | 0.00 | 0.00 | 54 | 1015.3 |
| 20260831152925 | 90 | 240 | 4.0 | 10.0 | 0.00 | 0.00 | 0.00 | 55 | 1015.2 |
| 20260831152420 | 90 | 239 | 4.0 | 10.0 | 0.00 | 0.00 | 0.00 | 56 | 1014.8 |
| 20260831151916 | 89 | 194 | 3.0 | 9.0 | 0.00 | 0.00 | 0.00 | 57 | 1015.1 |
| 20260831151414 | 89 | 242 | 1.0 | 11.0 | 0.00 | 0.00 | 0.00 | 58 | 1015.0 |
| 20260831150910 | 89 | 242 | 7.0 | 11.0 | 0.00 | 0.00 | 0.00 | 58 | 1015.2 |
| 20260831150405 | 89 | 233 | 2.0 | 8.0 | 0.00 | 0.00 | 0.00 | 61 | 1015.1 |
| 20260831145904 | 88 | 204 | 4.0 | 12.0 | 0.00 | 0.00 | 0.00 | 61 | 1014.8 |
| 20260831145401 | 88 | 236 | 5.0 | 9.0 | 0.00 | 0.00 | 0.00 | 63 | 1014.9 |
| 20260831144856 | 87 | 176 | 3.0 | 12.0 | 0.00 | 0.00 | 0.00 | 64 | 1015.0 |
| 20260831144352 | 86 | 222 | 5.0 | 15.0 | 0.00 | 0.00 | 0.00 | 66 | 1014.9 |
| 20260831143847 | 86 | 209 | 6.0 | 9.0 | 0.00 | 0.00 | 0.00 | 66 | 1014.8 |
| 20260831143342 | 86 | 245 | 3.0 | 13.0 | 0.00 | 0.00 | 0.00 | 67 | 1014.8 |
| 20260831142837 | 86 | 244 | 4.0 | 13.0 | 0.00 | 0.00 | 0.00 | 67 | 1015.1 |
| 20260831142333 | 86 | 221 | 3.0 | 14.0 | 0.00 | 0.00 | 0.00 | 67 | 1015.0 |
| 20260831141832 | 85 | 224 | 4.0 | 9.0 | 0.00 | 0.00 | 0.00 | 69 | 1015.0 |
| 20260831141327 | 85 | 201 | 3.0 | 10.0 | 0.00 | 0.00 | 0.00 | 70 | 1015.3 |
| 20260831140822 | 85 | 208 | 2.0 | 7.0 | 0.00 | 0.00 | 0.00 | 71 | 1015.1 |
| 20260831140316 | 83 | 227 | 8.0 | 11.0 | 0.00 | 0.00 | 0.00 | 73 | 1015.1 |
| 20260831135815 | 84 | 237 | 4.0 | 9.0 | 0.00 | 0.00 | 0.00 | 73 | 1014.9 |
| 20260831135310 | 83 | 238 | 3.0 | 14.0 | 0.00 | 0.00 | 0.00 | 74 | 1014.9 |
| 20260831134805 | 83 | 215 | 3.0 | 10.0 | 0.00 | 0.00 | 0.00 | 74 | 1014.9 |
| 20260831134302 | 83 | 238 | 1.0 | 8.0 | 0.00 | 0.00 | 0.00 | 75 | 1015.0 |
| 20260831133801 | 83 | 220 | 6.0 | 12.0 | 0.00 | 0.00 | 0.00 | 75 | 1015.0 |
| 20260831133300 | 82 | 204 | 8.0 | 8.0 | 0.00 | 0.00 | 0.00 | 76 | 1014.7 |
| 20260831132755 | 82 | 229 | 2.0 | 5.0 | 0.00 | 0.00 | 0.00 | 77 | 1014.6 |
| 20260831132250 | 82 | 193 | 0.0 | 4.0 | 0.00 | 0.00 | 0.00 | 77 | 1014.4 |
| 20260831131744 | 81 | 217 | 1.0 | 6.0 | 0.00 | 0.00 | 0.00 | 78 | 1014.6 |
| 20260831131242 | 81 | 190 | 2.0 | 6.0 | 0.00 | 0.00 | 0.00 | 78 | 1014.5 |
| 20260831130736 | 81 | 275 | 0.0 | 7.0 | 0.00 | 0.00 | 0.00 | 79 | 1014.4 |
| 20260831130231 | 80 | 194 | 2.0 | 4.0 | 0.00 | 0.00 | 0.00 | 79 | 1014.4 |
| 20260831125730 | 80 | 187 | 2.0 | 4.0 | 0.00 | 0.00 | 0.00 | 80 | 1014.2 |
| 20260831125226 | 79 | 282 | 0.0 | 3.0 | 0.00 | 0.00 | 0.00 | 80 | 1014.4 |
| 20260831124720 | 79 | 203 | 2.0 | 3.0 | 0.00 | 0.00 | 0.00 | 81 | 1014.2 |
| 20260831124217 | 79 | 183 | 0.0 | 5.0 | 0.00 | 0.00 | 0.00 | 81 | 1014.0 |
| 20260831123716 | 79 | 299 | 0.0 | 1.0 | 0.00 | 0.00 | 0.00 | 81 | 1014.3 |
| 20260831123215 | 78 | 258 | 0.0 | 2.0 | 0.00 | 0.00 | 0.00 | 82 | 1013.8 |
| 20260831122710 | 78 | 202 | 2.0 | 2.0 | 0.00 | 0.00 | 0.00 | 82 | 1013.9 |
| 20260831122206 | 78 | 210 | 2.0 | 3.0 | 0.00 | 0.00 | 0.00 | 83 | 1013.9 |
| 20260831121705 | 78 | 211 | 1.0 | 3.0 | 0.00 | 0.00 | 0.00 | 83 | 1013.6 |
| 20260831121202 | 78 | 198 | 1.0 | 3.0 | 0.00 | 0.00 | 0.00 | 83 | 1013.8 |
| 20260831120657 | 78 | 249 | 0.0 | 4.0 | 0.00 | 0.00 | 0.00 | 82 | 1013.6 |
| 20260831120151 | 78 | 192 | 4.0 | 5.0 | 0.00 | 0.00 | 0.00 | 82 | 1013.6 |
| 20260831115647 | 78 | 212 | 2.0 | 6.0 | 0.00 | 0.00 | 0.00 | 81 | 1013.4 |
| 20260831115143 | 78 | 167 | 0.0 | 6.0 | 0.00 | 0.00 | 0.00 | 81 | 1013.6 |
| 20260831114642 | 78 | 173 | 3.0 | 5.0 | 0.00 | 0.00 | 0.00 | 81 | 1013.3 |
| 20260831114137 | 78 | 207 | 2.0 | 7.0 | 0.00 | 0.00 | 0.00 | 80 | 1013.5 |
| 20260831113637 | 78 | 182 | 2.0 | 6.0 | 0.00 | 0.00 | 0.00 | 80 | 1013.1 |
| 20260831113132 | 78 | 144 | 2.0 | 5.0 | 0.00 | 0.00 | 0.00 | 80 | 1013.3 |
| 20260831112631 | 78 | 205 | 3.0 | 6.0 | 0.00 | 0.00 | 0.00 | 80 | 1013.3 |
| 20260831112126 | 78 | 188 | 3.0 | 5.0 | 0.00 | 0.00 | 0.00 | 79 | 1013.2 |
| 20260831111622 | 78 | 287 | 0.0 | 6.0 | 0.00 | 0.00 | 0.00 | 79 | 1013.1 |
| 20260831111117 | 78 | 175 | 2.0 | 4.0 | 0.00 | 0.00 | 0.00 | 79 | 1013.0 |
| 20260831110612 | 79 | 184 | 3.0 | 4.0 | 0.00 | 0.00 | 0.00 | 79 | 1013.4 |
| 20260831105601 | 79 | 225 | 1.0 | 4.0 | 0.00 | 0.00 | 0.00 | 78 | 1013.0 |
| 20260831105056 | 79 | 205 | 2.0 | 6.0 | 0.00 | 0.00 | 0.00 | 77 | 1013.3 |
| 20260831104552 | 79 | 294 | 0.0 | 4.0 | 0.00 | 0.00 | 0.00 | 77 | 1013.0 |
| 20260831104048 | 79 | 257 | 3.0 | 5.0 | 0.00 | 0.00 | 0.00 | 77 | 1013.1 |
| 20260831103543 | 79 | 202 | 2.0 | 3.0 | 0.00 | 0.00 | 0.00 | 77 | 1013.0 |
| 20260831103039 | 79 | 247 | 0.0 | 3.0 | 0.00 | 0.00 | 0.00 | 76 | 1013.0 |
| 20260831102533 | 79 | 190 | 3.0 | 4.0 | 0.00 | 0.00 | 0.00 | 76 | 1013.2 |
| 20260831102028 | 79 | 192 | 2.0 | 5.0 | 0.00 | 0.00 | 0.00 | 76 | 1013.0 |
| 20260831101523 | 79 | 201 | 3.0 | 5.0 | 0.00 | 0.00 | 0.00 | 76 | 1013.1 |
| 20260831101019 | 80 | 203 | 1.0 | 5.0 | 0.00 | 0.00 | 0.00 | 75 | 1013.3 |
| 20260831100515 | 80 | 205 | 3.0 | 6.0 | 0.00 | 0.00 | 0.00 | 75 | 1012.9 |
| 20260831100011 | 80 | 198 | 2.0 | 5.0 | 0.00 | 0.00 | 0.00 | 75 | 1012.9 |
| 20260831095509 | 80 | 206 | 3.0 | 4.0 | 0.00 | 0.00 | 0.00 | 74 | 1013.0 |
| 20260831095004 | 80 | 189 | 3.0 | 4.0 | 0.00 | 0.00 | 0.00 | 74 | 1012.9 |
| 20260831094500 | 80 | 201 | 2.0 | 5.0 | 0.00 | 0.00 | 0.00 | 74 | 1013.0 |
| 20260831093956 | 80 | 205 | 2.0 | 6.0 | 0.00 | 0.00 | 0.00 | 73 | 1013.1 |
| 20260831093450 | 81 | 147 | 0.0 | 6.0 | 0.00 | 0.00 | 0.00 | 73 | 1012.9 |
| 20260831092947 | 81 | 206 | 1.0 | 5.0 | 0.00 | 0.00 | 0.00 | 72 | 1012.9 |
| 20260831092442 | 81 | 245 | 2.0 | 7.0 | 0.00 | 0.00 | 0.00 | 72 | 1012.9 |
| 20260831091937 | 81 | 267 | 0.0 | 8.0 | 0.00 | 0.00 | 0.00 | 72 | 1013.1 |
| 20260831091433 | 81 | 144 | 2.0 | 6.0 | 0.00 | 0.00 | 0.00 | 72 | 1013.0 |
| 20260831090928 | 81 | 193 | 2.0 | 5.0 | 0.00 | 0.00 | 0.00 | 71 | 1012.7 |
| 20260831090424 | 81 | 199 | 3.0 | 6.0 | 0.00 | 0.00 | 0.00 | 71 | 1012.7 |
| 20260831085920 | 81 | 187 | 6.0 | 6.0 | 0.00 | 0.00 | 0.00 | 71 | 1012.7 |
| 20260831085415 | 81 | 209 | 1.0 | 7.0 | 0.00 | 0.00 | 0.00 | 70 | 1012.6 |
| 20260831084914 | 81 | 233 | 1.0 | 5.0 | 0.00 | 0.00 | 0.00 | 70 | 1013.1 |
| 20260831084410 | 81 | 180 | 2.0 | 7.0 | 0.00 | 0.00 | 0.00 | 70 | 1012.8 |
| 20260831083907 | 81 | 196 | 0.0 | 5.0 | 0.00 | 0.00 | 0.00 | 69 | 1012.7 |
| 20260831083402 | 81 | 204 | 3.0 | 5.0 | 0.00 | 0.00 | 0.00 | 69 | 1012.7 |
| 20260831082901 | 82 | 202 | 2.0 | 7.0 | 0.00 | 0.00 | 0.00 | 68 | 1012.7 |
| 20260831082401 | 82 | 208 | 2.0 | 6.0 | 0.00 | 0.00 | 0.00 | 68 | 1012.7 |
| 20260831081856 | 82 | 220 | 2.0 | 7.0 | 0.00 | 0.00 | 0.00 | 67 | 1012.6 |
| 20260831081351 | 82 | 195 | 0.0 | 5.0 | 0.00 | 0.00 | 0.00 | 67 | 1012.6 |
| 20260831080848 | 82 | 267 | 1.0 | 4.0 | 0.00 | 0.00 | 0.00 | 67 | 1012.8 |
| 20260831080343 | 82 | 208 | 3.0 | 5.0 | 0.00 | 0.00 | 0.00 | 66 | 1012.8 |
| 20260831075838 | 82 | 251 | 0.0 | 4.0 | 0.00 | 0.00 | 0.00 | 65 | 1012.7 |
| 20260831075333 | 82 | 187 | 2.0 | 6.0 | 0.00 | 0.00 | 0.00 | 65 | 1012.9 |
| 20260831074828 | 83 | 225 | 4.0 | 6.0 | 0.00 | 0.00 | 0.00 | 64 | 1012.6 |
| 20260831074327 | 83 | 233 | 2.0 | 6.0 | 0.00 | 0.00 | 0.00 | 64 | 1012.7 |
| 20260831073823 | 83 | 218 | 5.0 | 7.0 | 0.00 | 0.00 | 0.00 | 63 | 1012.7 |
| 20260831073321 | 83 | 216 | 3.0 | 7.0 | 0.00 | 0.00 | 0.00 | 63 | 1012.5 |
| 20260831072817 | 83 | 210 | 2.0 | 7.0 | 0.00 | 0.00 | 0.00 | 62 | 1012.8 |
| 20260831072313 | 83 | 228 | 2.0 | 7.0 | 0.00 | 0.00 | 0.00 | 62 | 1012.7 |
| 20260831071809 | 84 | 222 | 1.0 | 6.0 | 0.00 | 0.00 | 0.00 | 61 | 1012.7 |
| 20260831071308 | 84 | 195 | 5.0 | 6.0 | 0.00 | 0.00 | 0.00 | 61 | 1012.9 |
| 20260831070803 | 84 | 193 | 3.0 | 7.0 | 0.00 | 0.00 | 0.00 | 60 | 1012.6 |
| 20260831070301 | 84 | 196 | 5.0 | 9.0 | 0.00 | 0.00 | 0.00 | 59 | 1012.7 |
| 20260831065800 | 84 | 224 | 2.0 | 8.0 | 0.00 | 0.00 | 0.00 | 59 | 1012.8 |
| 20260831065258 | 85 | 181 | 11.0 | 11.0 | 0.00 | 0.00 | 0.00 | 58 | 1012.6 |
| 20260831064754 | 85 | 189 | 4.0 | 8.0 | 0.00 | 0.00 | 0.00 | 57 | 1012.7 |
| 20260831064249 | 85 | 207 | 4.0 | 9.0 | 0.00 | 0.00 | 0.00 | 57 | 1012.6 |
| 20260831063745 | 85 | 186 | 4.0 | 9.0 | 0.00 | 0.00 | 0.00 | 56 | 1012.8 |
| 20260831063239 | 86 | 189 | 2.0 | 10.0 | 0.00 | 0.00 | 0.00 | 55 | 1012.8 |
| 20260831062734 | 86 | 181 | 3.0 | 11.0 | 0.00 | 0.00 | 0.00 | 55 | 1012.8 |
| 20260831062229 | 86 | 154 | 2.0 | 10.0 | 0.00 | 0.00 | 0.00 | 54 | 1012.7 |
| 20260831061727 | 86 | 191 | 3.0 | 9.0 | 0.00 | 0.00 | 0.00 | 54 | 1012.8 |
| 20260831061223 | 87 | 148 | 4.0 | 14.0 | 0.00 | 0.00 | 0.00 | 53 | 1012.8 |
| 20260831060719 | 87 | 220 | 3.0 | 9.0 | 0.00 | 0.00 | 0.00 | 53 | 1012.8 |
| 20260831060218 | 86 | 216 | 0.0 | 7.0 | 0.00 | 0.00 | 0.00 | 53 | 1012.7 |
| 20260831055713 | 86 | 169 | 3.0 | 8.0 | 0.00 | 0.00 | 0.00 | 53 | 1013.0 |
| 20260831055208 | 86 | 164 | 2.0 | 7.0 | 0.00 | 0.00 | 0.00 | 53 | 1012.8 |
| 20260831054708 | 86 | 204 | 2.0 | 8.0 | 0.00 | 0.00 | 0.00 | 53 | 1012.7 |
| 20260831054202 | 86 | 180 | 3.0 | 6.0 | 0.00 | 0.00 | 0.00 | 52 | 1012.7 |
| 20260831053656 | 86 | 221 | 1.0 | 6.0 | 0.00 | 0.00 | 0.00 | 52 | 1012.8 |
| 20260831053154 | 86 | 209 | 2.0 | 5.0 | 0.00 | 0.00 | 0.00 | 52 | 1012.7 |
| 20260831052649 | 86 | 178 | 2.0 | 4.0 | 0.00 | 0.00 | 0.00 | 52 | 1012.8 |
| 20260831052148 | 86 | 205 | 2.0 | 6.0 | 0.00 | 0.00 | 0.00 | 51 | 1012.6 |
| 20260831051646 | 86 | 147 | 0.0 | 4.0 | 0.00 | 0.00 | 0.00 | 51 | 1012.5 |
| 20260831051145 | 86 | 175 | 3.0 | 4.0 | 0.00 | 0.00 | 0.00 | 50 | 1012.6 |
| 20260831050639 | 87 | 172 | 1.0 | 5.0 | 0.00 | 0.00 | 0.00 | 50 | 1012.9 |
| 20260831050133 | 87 | 191 | 2.0 | 6.0 | 0.00 | 0.00 | 0.00 | 49 | 1012.6 |
| 20260831045633 | 87 | 180 | 6.0 | 6.0 | 0.00 | 0.00 | 0.00 | 49 | 1012.6 |
| 20260831045128 | 87 | 207 | 3.0 | 6.0 | 0.00 | 0.00 | 0.00 | 49 | 1012.3 |
| 20260831044623 | 87 | 165 | 2.0 | 9.0 | 0.00 | 0.00 | 0.00 | 49 | 1012.4 |
| 20260831044118 | 87 | 191 | 3.0 | 6.0 | 0.00 | 0.00 | 0.00 | 49 | 1012.5 |
| 20260831043613 | 87 | 232 | 2.0 | 5.0 | 0.00 | 0.00 | 0.00 | 48 | 1012.2 |
| 20260831043103 | 87 | 202 | 0.0 | 5.0 | 0.00 | 0.00 | 0.00 | 48 | 1012.5 |
| 20260831042602 | 87 | 194 | 2.0 | 5.0 | 0.00 | 0.00 | 0.00 | 48 | 1012.3 |
| 20260831042057 | 88 | 170 | 1.0 | 6.0 | 0.00 | 0.00 | 0.00 | 47 | 1012.6 |
| 20260831041552 | 88 | 226 | 1.0 | 5.0 | 0.00 | 0.00 | 0.00 | 47 | 1012.4 |
| 20260831041051 | 88 | 181 | 0.0 | 7.0 | 0.00 | 0.00 | 0.00 | 47 | 1012.3 |
| 20260831040546 | 88 | 195 | 2.0 | 4.0 | 0.00 | 0.00 | 0.00 | 47 | 1012.3 |
| 20260831040045 | 88 | 171 | 4.0 | 7.0 | 0.00 | 0.00 | 0.00 | 46 | 1012.3 |
| 20260831035538 | 88 | 163 | 4.0 | 5.0 | 0.00 | 0.00 | 0.00 | 46 | 1012.3 |
| 20260831035033 | 88 | 215 | 3.0 | 5.0 | 0.00 | 0.00 | 0.00 | 46 | 1012.2 |
| 20260831034533 | 89 | 159 | 2.0 | 7.0 | 0.00 | 0.00 | 0.00 | 45 | 1012.3 |
| 20260831034028 | 89 | 195 | 0.0 | 5.0 | 0.00 | 0.00 | 0.00 | 45 | 1012.3 |
| 20260831033524 | 89 | 187 | 3.0 | 7.0 | 0.00 | 0.00 | 0.00 | 45 | 1012.1 |
| 20260831033019 | 89 | 182 | 2.0 | 5.0 | 0.00 | 0.00 | 0.00 | 45 | 1012.2 |
| 20260831032518 | 89 | 173 | 2.0 | 5.0 | 0.00 | 0.00 | 0.00 | 45 | 1012.2 |
| 20260831032014 | 89 | 231 | 0.0 | 7.0 | 0.00 | 0.00 | 0.00 | 45 | 1012.1 |
| 20260831031514 | 88 | 173 | 1.0 | 4.0 | 0.00 | 0.00 | 0.00 | 45 | 1012.0 |
| 20260831031013 | 89 | 120 | 0.0 | 5.0 | 0.00 | 0.00 | 0.00 | 45 | 1012.1 |
| 20260831030512 | 90 | 174 | 0.0 | 6.0 | 0.00 | 0.00 | 0.00 | 43 | 1012.0 |
| 20260831030011 | 89 | 158 | 3.0 | 7.0 | 0.00 | 0.00 | 0.00 | 43 | 1011.9 |
| 20260831025504 | 89 | 193 | 3.0 | 7.0 | 0.00 | 0.00 | 0.00 | 43 | 1012.0 |
| 20260831024959 | 89 | 190 | 3.0 | 4.0 | 0.00 | 0.00 | 0.00 | 43 | 1012.0 |
| 20260831024454 | 90 | 195 | 2.0 | 4.0 | 0.00 | 0.00 | 0.00 | 42 | 1012.0 |
| 20260831023949 | 91 | 211 | 1.0 | 8.0 | 0.00 | 0.00 | 0.00 | 42 | 1011.8 |
| 20260831023447 | 91 | 161 | 5.0 | 6.0 | 0.00 | 0.00 | 0.00 | 41 | 1011.8 |
| 20260831022942 | 91 | 166 | 4.0 | 7.0 | 0.00 | 0.00 | 0.00 | 41 | 1011.5 |
| 20260831022441 | 91 | 153 | 2.0 | 5.0 | 0.00 | 0.00 | 0.00 | 41 | 1011.5 |
| 20260831021936 | 91 | 177 | 2.0 | 5.0 | 0.00 | 0.00 | 0.00 | 41 | 1011.7 |
| 20260831021435 | 91 | 166 | 1.0 | 6.0 | 0.00 | 0.00 | 0.00 | 40 | 1011.5 |
| 20260831020931 | 91 | 182 | 3.0 | 6.0 | 0.00 | 0.00 | 0.00 | 40 | 1011.2 |
| 20260831020431 | 91 | 176 | 1.0 | 4.0 | 0.00 | 0.00 | 0.00 | 40 | 1011.5 |
| 20260831015926 | 91 | 209 | 1.0 | 4.0 | 0.00 | 0.00 | 0.00 | 40 | 1011.2 |
| 20260831015422 | 91 | 201 | 0.0 | 4.0 | 0.00 | 0.00 | 0.00 | 40 | 1011.2 |
| 20260831014917 | 91 | 197 | 0.0 | 6.0 | 0.00 | 0.00 | 0.00 | 39 | 1011.1 |
| 20260831014417 | 91 | 180 | 0.0 | 3.0 | 0.00 | 0.00 | 0.00 | 39 | 1011.1 |
| 20260831013913 | 91 | 194 | 0.0 | 2.0 | 0.00 | 0.00 | 0.00 | 39 | 1010.9 |
| 20260831013408 | 91 | 169 | 0.0 | 2.0 | 0.00 | 0.00 | 0.00 | 39 | 1011.0 |
| 20260831012902 | 92 | 236 | 0.0 | 3.0 | 0.00 | 0.00 | 0.00 | 38 | 1010.7 |
| 20260831012357 | 92 | 181 | 1.0 | 3.0 | 0.00 | 0.00 | 0.00 | 38 | 1010.9 |
| 20260831011852 | 93 | 191 | 0.0 | 3.0 | 0.00 | 0.00 | 0.00 | 38 | 1011.0 |
| 20260831011346 | 93 | 185 | 0.0 | 5.0 | 0.00 | 0.00 | 0.00 | 37 | 1011.1 |
| 20260831010837 | 93 | 169 | 3.0 | 4.0 | 0.00 | 0.00 | 0.00 | 37 | 1010.8 |
| 20260831010336 | 93 | 200 | 2.0 | 5.0 | 0.00 | 0.00 | 0.00 | 37 | 1011.1 |
| 20260831005832 | 94 | 167 | 3.0 | 5.0 | 0.00 | 0.00 | 0.00 | 36 | 1010.9 |
| 20260831005328 | 95 | 180 | 2.0 | 5.0 | 0.00 | 0.00 | 0.00 | 36 | 1010.8 |
| 20260831004822 | 95 | 205 | 2.0 | 4.0 | 0.00 | 0.00 | 0.00 | 35 | 1010.8 |
| 20260831004318 | 96 | 204 | 2.0 | 4.0 | 0.00 | 0.00 | 0.00 | 34 | 1011.0 |
| 20260831003813 | 96 | 200 | 1.0 | 7.0 | 0.00 | 0.00 | 0.00 | 34 | 1010.8 |
| 20260831003310 | 96 | 161 | 3.0 | 6.0 | 0.00 | 0.00 | 0.00 | 33 | 1011.0 |
| 20260831002809 | 97 | 174 | 5.0 | 7.0 | 0.00 | 0.00 | 0.00 | 32 | 1011.0 |
| 20260831002306 | 97 | 220 | 3.0 | 6.0 | 0.00 | 0.00 | 0.00 | 32 | 1010.9 |
| 20260831001759 | 98 | 170 | 4.0 | 9.0 | 0.00 | 0.00 | 0.00 | 31 | 1010.9 |
| 20260831001253 | 98 | 177 | 3.0 | 7.0 | 0.00 | 0.00 | 0.00 | 31 | 1010.9 |